Ukiah, CA

5:31 AM PDT on March 23, 2017 (GMT -0700)
Ukiah Municipal

Weather History for KUKI - November, 2012

Change the Weather History Date:

Wednesday, November 7, 2012

  Actual Average Record
Temperature  
Mean Temperature 59 °F 54 °F  
Max Temperature 74 °F 66 °F 86 °F (1955)
Min Temperature 44 °F 41 °F 27 °F (1929)
Degree Days  
Heating Degree Days 6 12  
Month to date heating degree days 25 75  
Since 1 July heating degree days 138 275  
Cooling Degree Days 0 0  
Month to date cooling degree days 1 0  
Year to date cooling degree days 983 835  
Growing Degree Days 8 (Base 50)    
Moisture  
Dew Point 47 °F    
Average Humidity 69    
Maximum Humidity 93    
Minimum Humidity 44    
Precipitation  
Precipitation 0.00 in 0.13 in 1.82 in (2005)
Month to date precipitation 0.01 0.89  
Year to date precipitation 21.01 27.02  
Since 1 July precipitation 2.09  
Snow  
Snow 0.00 in - - ()
Month to date snowfall 0.0  
Since 1 July snowfall 0.0  
Since 1 September snowfall 0.0  
Snow Depth 0.00 in    
Sea Level Pressure  
Sea Level Pressure 29.98 in    
Wind  
Wind Speed 2 mph (NNW)    
Max Wind Speed 8 mph    
Max Gust Speed 14 mph    
Visibility 10 miles    
Events      
T = Trace of Precipitation, MM = Missing Value Source: NWS Daily Summary

Daily Weather History Graph

Daily Weather History Graph

Search for Another Location

Airport or City:

Trip Planner

Search our weather history database for the weather conditions in past years. The results will help you decide how hot, cold, wet, or windy it might be!

Date:

Astronomy

Nov. 07, 2012 Rise Set
Actual Time 6:47 AM PST 5:04 PM PST
Civil Twilight 6:19 AM PST 5:32 PM PST
Nautical Twilight 5:47 AM PST 6:04 PM PST
Astronomical Twilight 5:16 AM PST 6:36 PM PST
Moon No Moon Rise 1:14 PM PST (11/7)
Length of Visible Light 11h 13m
Length of Day
10h 17m
Last Quarter, 42% of the Moon is Illuminated
Nov 7
Last Quarter
Nov 13
New
Nov 20
First Quarter
Nov 28
Full
Dec 6
Last Quarter

Hourly Weather History & Observations

Time (PST) Temp. Dew Point Humidity Pressure Visibility Wind Dir Wind Speed Gust Speed Precip Events Conditions
12:56 AM 48.0 °F 45.0 °F 89% 30.04 in 10.0 mi Calm Calm - N/A   Clear
1:56 AM 48.9 °F 45.0 °F 86% 30.04 in 10.0 mi Calm Calm - N/A   Clear
2:56 AM 46.0 °F 44.1 °F 93% 30.03 in 10.0 mi Calm Calm - N/A   Clear
3:56 AM 46.9 °F 44.1 °F 90% 30.03 in 10.0 mi Calm Calm - N/A   Clear
4:56 AM 46.0 °F 44.1 °F 93% 30.03 in 10.0 mi Calm Calm - N/A   Clear
5:56 AM 46.0 °F 43.0 °F 89% 30.04 in 10.0 mi Calm Calm - N/A   Clear
6:56 AM 44.1 °F 42.1 °F 93% 30.04 in 10.0 mi Calm Calm - N/A   Clear
7:56 AM 48.0 °F 45.0 °F 89% 30.06 in 10.0 mi Calm Calm - N/A   Clear
8:56 AM 53.1 °F 48.0 °F 83% 30.05 in 10.0 mi Calm Calm - N/A   Clear
9:56 AM 60.1 °F 48.9 °F 67% 30.03 in 10.0 mi NW 3.5 mph - N/A   Clear
10:56 AM 64.0 °F 48.9 °F 58% 30.01 in 10.0 mi Calm Calm - N/A   Clear
11:56 AM 70.0 °F 48.9 °F 47% 29.97 in 10.0 mi Variable 3.5 mph - N/A   Clear
12:56 PM 71.1 °F 48.9 °F 45% 29.94 in 10.0 mi Calm Calm - N/A   Clear
1:56 PM 73.9 °F 51.1 °F 45% 29.92 in 10.0 mi South 4.6 mph - N/A   Clear
2:56 PM 73.0 °F 52.0 °F 48% 29.92 in 10.0 mi Variable 3.5 mph - N/A   Clear
3:56 PM 69.1 °F 52.0 °F 54% 29.91 in 10.0 mi North 5.8 mph - N/A   Clear
4:56 PM 63.0 °F 51.1 °F 65% 29.92 in 10.0 mi NNE 5.8 mph - N/A   Clear
5:56 PM 57.9 °F 48.9 °F 72% 29.94 in 10.0 mi North 6.9 mph - N/A   Clear
6:56 PM 55.9 °F 48.0 °F 75% 29.94 in 10.0 mi North 4.6 mph - N/A   Clear
7:56 PM 54.0 °F 46.9 °F 77% 29.94 in 10.0 mi NW 3.5 mph - N/A   Clear
8:56 PM 54.0 °F 45.0 °F 72% 29.94 in 10.0 mi NW 5.8 mph - N/A   Clear
9:56 PM 51.1 °F 45.0 °F 80% 29.93 in 10.0 mi Calm Calm - N/A   Clear
11:56 PM 48.9 °F 42.1 °F 77% 29.91 in 10.0 mi Variable 3.5 mph - N/A   Mostly Cloudy